[[{"header":{"parameterUnit":"m.s-1","parameterCategory":2,"la1":30.2991,"la2":30.254,"lo1":-89.0895,"lo2":-89.0444,"dy":0.0017,"dx":0.0017,"nx":28,"ny":28,"refTime":"2025-07-09T03:00:00:Z","depth":"0","parameterNumber":2,"parameterNumberName":"U-component_of_CURRENTS"},"data":[0,0,0,0,0,0,0,0,0,0,0,0,0,0,0,0,0,0,0,0,0,0,0,0,0,0,0,0,0,0,0,0,0,0,0,0,0,0,0,0,0,0,0,0,0,0,0,0,0,0,0,0,0,0,0,0,0,0,-0.2193,-0.2193,0,-0.2235,-0.2236,-0.2236,-0.2217,-0.2216,-0.2215,-0.2214,-0.2157,-0.2156,-0.2156,0,0,0,0,0,0,0,0,0,0,0,0,0,-0.2137,-0.2138,-0.2193,-0.2193,-0.2194,-0.2235,-0.2236,-0.2236,-0.2218,-0.2216,-0.2215,-0.2213,-0.2157,-0.2156,-0.2156,0,0,0,0,0,0,0,0,0,0,0,0,0,-0.217,-0.2138,-0.2193,-0.2188,-0.2188,-0.2235,-0.2236,-0.2237,-0.2218,-0.2216,-0.2214,-0.2213,-0.2157,-0.2156,-0.2156,-0.2188,0,0,-0.2154,-0.2153,0,0,0,0,0,0,0,0,-0.2168,-0.2172,-0.2188,-0.2188,-0.2188,-0.2218,-0.2195,-0.2215,-0.2218,-0.2208,-0.2214,-0.2212,-0.2168,-0.2166,-0.2182,-0.2185,-0.2183,-0.2154,-0.2153,-0.2153,-0.2153,0,0,0,0,0,0,0,-0.2165,-0.217,-0.2211,-0.2189,-0.2189,-0.2197,-0.22,-0.2199,-0.2197,-0.2209,-0.2207,-0.221,-0.2167,-0.2183,-0.218,-0.2182,-0.2154,-0.2153,-0.2153,-0.2153,-0.2222,-0.2224,0,0,0,0,0,0,-0.2157,-0.2168,-0.221,-0.2212,-0.2172,-0.22,-0.2203,-0.2211,-0.2199,-0.2196,-0.2211,-0.2209,-0.2185,-0.2181,-0.2178,-0.2201,-0.2153,-0.2152,-0.2152,-0.222,-0.2223,-0.2225,0,0,0,0,0,0,-0.2156,-0.2161,-0.2208,-0.2189,-0.2196,-0.2202,-0.2212,-0.2213,-0.222,-0.2202,-0.2197,-0.2215,-0.2183,-0.2179,-0.2187,-0.2199,-0.2152,-0.2152,-0.2218,-0.2221,-0.2224,-0.2256,0,0,0,0,0,0,-0.2154,-0.216,-0.2163,-0.2189,-0.2196,-0.2235,-0.2214,-0.2215,-0.2224,-0.222,-0.2204,-0.2197,-0.2181,-0.2188,-0.2186,-0.2197,-0.2151,-0.2215,-0.2219,-0.2223,-0.2252,-0.226,-0.2267,0,0,0,0,0,-0.2152,-0.2163,-0.2163,-0.2168,-0.22,-0.2236,-0.2241,-0.224,-0.2225,-0.2238,-0.2232,-0.2197,-0.2213,-0.219,-0.2187,-0.2197,-0.2213,-0.2218,-0.2223,-0.2249,-0.2259,-0.2267,0,0,0,0,0,0,-0.2135,-0.2163,-0.2163,-0.218,-0.2205,-0.2231,-0.2239,-0.2243,-0.2253,-0.2243,-0.2222,-0.2217,-0.2232,-0.2222,-0.2196,-0.2236,-0.2209,-0.2214,-0.223,-0.2239,-0.2246,-0.2222,-0.2151,0,0,0,0,0,-0.2135,-0.2148,-0.2179,-0.2189,-0.2204,-0.2223,-0.2235,-0.2241,-0.2253,-0.2255,-0.2243,-0.2242,-0.2257,-0.225,-0.2259,-0.2275,-0.223,-0.2285,-0.2293,-0.2299,-0.2282,-0.2275,-0.2278,-0.2242,-0.2242,-0.2242,0,0,-0.2128,-0.2145,-0.215,-0.2186,-0.2203,-0.2231,-0.2226,-0.225,-0.2269,-0.2247,-0.226,-0.2265,-0.2271,-0.2294,-0.2299,-0.2279,-0.2279,-0.2305,-0.2309,-0.2289,-0.228,-0.2283,-0.2286,-0.2245,-0.2244,-0.2244,0,0,-0.2122,-0.214,-0.2151,-0.218,-0.2211,-0.2233,-0.224,-0.2271,-0.228,-0.2309,-0.2301,-0.2309,-0.2328,-0.2328,-0.2334,-0.2388,-0.2324,-0.2403,-0.2406,-0.2401,-0.2402,-0.2403,-0.2306,-0.2298,-0.2399,-0.2399,-0.2399,0,-0.2109,-0.213,-0.2159,-0.2184,-0.2203,-0.2234,-0.2255,-0.2285,-0.2311,-0.2316,-0.2314,-0.2345,-0.2342,-0.2365,-0.2388,-0.2398,-0.236,-0.2366,-0.2405,-0.2406,-0.2406,-0.2307,-0.2298,-0.2401,-0.2401,-0.24,-0.24,0,-0.2112,-0.2138,-0.215,-0.219,-0.2219,-0.2245,-0.2291,-0.2313,-0.2328,-0.2347,-0.2374,-0.2385,-0.2392,-0.241,-0.2414,-0.2427,-0.2384,-0.2417,-0.2371,-0.2411,-0.2304,-0.2294,-0.2404,-0.2403,-0.2403,-0.2402,0,0,-0.2054,-0.2135,-0.2136,-0.2157,-0.2224,-0.2243,-0.2291,-0.2331,-0.2341,-0.2378,-0.2387,-0.2427,-0.2421,-0.2429,-0.2435,-0.2433,-0.2392,-0.2427,-0.2426,-0.2306,-0.2311,-0.2088,-0.2055,-0.2442,-0.2442,-0.2442,-0.2217,0,-0.2041,-0.2085,-0.2131,-0.2169,-0.2196,-0.2249,-0.2284,-0.2326,-0.236,-0.238,-0.2406,-0.242,-0.2436,-0.2433,-0.244,-0.2432,-0.2375,-0.2444,-0.2311,-0.2304,-0.2084,-0.204,-0.1877,-0.1648,-0.2206,-0.2205,-0.2203,0,-0.2022,-0.2053,-0.2094,-0.2155,-0.2169,-0.2194,-0.2238,-0.2276,-0.233,-0.2353,-0.238,-0.2404,-0.2415,-0.2423,-0.2379,-0.2429,-0.2352,-0.2325,-0.2317,-0.2087,-0.2063,-0.1711,-0.1608,-0.162,-0.2187,-0.2188,-0.2189,0,-0.1959,-0.2023,-0.205,-0.2075,-0.2152,-0.2164,-0.2194,-0.2252,-0.2269,-0.2324,-0.2332,-0.237,-0.2362,-0.2343,-0.227,-0.2339,-0.2176,-0.2266,-0.1962,-0.1943,-0.176,-0.1725,-0.1629,-0.2171,-0.2172,-0.2172,-0.2173,0,-0.1935,-0.195,-0.2016,-0.2032,-0.2031,-0.2107,-0.2111,-0.2153,-0.2203,-0.2206,-0.2297,-0.2288,-0.235,-0.2277,-0.2233,-0.2019,-0.2128,-0.1913,-0.187,-0.176,-0.1729,-0.1697,-0.1802,-0.2164,-0.2166,-0.2167,-0.2169,0,-0.1876,-0.1931,-0.1947,-0.2002,-0.2008,-0.2001,-0.2039,-0.2042,-0.2111,-0.2117,-0.213,-0.2204,-0.2112,-0.2068,-0.1988,-0.191,-0.1714,-0.1641,-0.1448,-0.1385,-0.1156,-0.1269,-0.1143,-0.1113,-0.1312,-0.1305,-0.1299,0,-0.186,-0.1866,-0.1892,-0.1878,-0.1897,-0.19,-0.1897,-0.197,-0.1979,-0.2045,-0.2031,-0.1973,-0.1892,-0.1653,-0.1482,-0.1259,-0.1388,-0.0986,-0.1094,-0.1059,-0.1159,-0.1298,-0.1297,-0.0854,-0.0845,-0.0837,-0.0832,0,-0.1802,-0.1806,-0.1812,-0.1778,-0.1763,-0.1752,-0.1759,-0.1758,-0.1839,-0.1838,-0.1807,-0.1752,-0.1503,-0.1198,-0.0888,-0.0799,-0.0988,-0.0824,-0.088,-0.0833,-0.0892,-0.0868,-0.1046,-0.0766,-0.0773,-0.0777,-0.0781,-0.0784,-0.1737,-0.1708,-0.1701,-0.1657,-0.1639,-0.1602,-0.1548,-0.1567,-0.1542,-0.1494,-0.1533,-0.133,-0.097,-0.0526,-0.047,-0.0222,-0.0451,-0.0211,-0.0354,-0.0497,-0.0467,-0.0426,-0.0056,-0.0058,-0.006,-0.0062,-0.0064,0,-0.1655,-0.162,-0.1577,-0.1519,-0.1448,-0.1478,-0.1445,-0.1368,-0.1279,-0.1178,-0.1078,-0.0602,-0.0245,-0.0039,0.0329,0.0286,0.0099,0.0171,-0.0058,-0.0085,-0.0082,-0.0059,0.0439,0.0439,0.0439,0.0439,0.0439,0.0439,-0.1609,-0.1534,-0.1503,-0.1346,-0.1296,-0.1159,-0.1111,-0.101,-0.0889,-0.058,-0.0283,-0.0098,0.0238,0.0465,0.0541,0.0453,0.0214,0.0203,0.0041,-0.0036,-0.0087,-0.0136,-0.0135,0.0339,0.0339,0.0112,0.011,0.0108]},{"header":{"parameterUnit":"m.s-1","parameterCategory":2,"la1":30.2991,"la2":30.254,"lo1":-89.0895,"lo2":-89.0444,"dy":0.0017,"dx":0.0017,"nx":28,"ny":28,"refTime":"2025-07-09T03:00:00:Z","depth":"0","parameterNumber":3,"parameterNumberName":"V-component_of_CURRENTS"},"data":[0,0,0,0,0,0,0,0,0,0,0,0,0,0,0,0,0,0,0,0,0,0,0,0,0,0,0,0,0,0,0,0,0,0,0,0,0,0,0,0,0,0,0,0,0,0,0,0,0,0,0,0,0,0,0,0,0,0,-0.1096,-0.1095,0,-0.1013,-0.1012,-0.1011,-0.0897,-0.0895,-0.0894,-0.0893,-0.0753,-0.075,-0.0748,0,0,0,0,0,0,0,0,0,0,0,0,0,-0.0997,-0.1,-0.1096,-0.1095,-0.1095,-0.1014,-0.1012,-0.101,-0.0897,-0.0895,-0.0894,-0.0892,-0.0754,-0.0751,-0.0748,0,0,0,0,0,0,0,0,0,0,0,0,0,-0.0984,-0.1001,-0.1096,-0.1033,-0.1027,-0.1014,-0.1012,-0.101,-0.0897,-0.0895,-0.0893,-0.0891,-0.0755,-0.0751,-0.0747,-0.0765,0,0,-0.0736,-0.0734,0,0,0,0,0,0,0,0,-0.0985,-0.0987,-0.1043,-0.1037,-0.1031,-0.0969,-0.0926,-0.0927,-0.0898,-0.094,-0.0893,-0.089,-0.0825,-0.0816,-0.0797,-0.0759,-0.0753,-0.0736,-0.0733,-0.0732,-0.0731,0,0,0,0,0,0,0,-0.0986,-0.0989,-0.1057,-0.1043,-0.1035,-0.0955,-0.0952,-0.0925,-0.0889,-0.0936,-0.0929,-0.0931,-0.082,-0.08,-0.0792,-0.0751,-0.0736,-0.0732,-0.073,-0.0729,-0.0679,-0.0679,0,0,0,0,0,0,-0.1021,-0.0992,-0.1059,-0.1055,-0.1009,-0.096,-0.0956,-0.0986,-0.089,-0.0876,-0.0933,-0.0926,-0.0808,-0.0797,-0.0787,-0.0795,-0.0732,-0.0728,-0.0726,-0.0678,-0.0679,-0.068,0,0,0,0,0,0,-0.1019,-0.1029,-0.1063,-0.1023,-0.1023,-0.0966,-0.0999,-0.0985,-0.0962,-0.089,-0.0872,-0.0924,-0.0806,-0.0792,-0.0765,-0.0788,-0.0727,-0.0723,-0.0677,-0.0678,-0.0679,-0.0815,0,0,0,0,0,0,-0.1017,-0.1029,-0.1054,-0.1028,-0.1027,-0.1073,-0.1001,-0.0985,-0.0969,-0.0959,-0.0877,-0.0861,-0.0803,-0.0771,-0.0761,-0.0782,-0.072,-0.0676,-0.0677,-0.0679,-0.0809,-0.0821,-0.0831,0,0,0,0,0,-0.1014,-0.1065,-0.1057,-0.1064,-0.1068,-0.1075,-0.1068,-0.1012,-0.0971,-0.0979,-0.0915,-0.0864,-0.0773,-0.0769,-0.0757,-0.0778,-0.0675,-0.0677,-0.0679,-0.0805,-0.0819,-0.083,0,0,0,0,0,0,-0.1031,-0.1058,-0.1048,-0.1103,-0.1098,-0.1059,-0.1061,-0.1026,-0.0982,-0.0965,-0.0882,-0.0864,-0.0848,-0.0797,-0.0794,-0.0766,-0.0714,-0.0714,-0.0813,-0.0826,-0.0836,-0.0862,-0.0717,0,0,0,0,0,-0.1054,-0.11,-0.1101,-0.1144,-0.1148,-0.1106,-0.1099,-0.107,-0.1032,-0.1009,-0.0952,-0.089,-0.085,-0.0825,-0.0783,-0.0777,-0.0709,-0.0779,-0.0789,-0.0799,-0.0811,-0.075,-0.0756,-0.0686,-0.0686,-0.0686,0,0,-0.1075,-0.1094,-0.1119,-0.1151,-0.1137,-0.1161,-0.1095,-0.1102,-0.1113,-0.1004,-0.0992,-0.0931,-0.0857,-0.0843,-0.0831,-0.0802,-0.0776,-0.0801,-0.081,-0.0817,-0.0753,-0.076,-0.0766,-0.0688,-0.0687,-0.0687,0,0,-0.1135,-0.1157,-0.1209,-0.1216,-0.1221,-0.1203,-0.1214,-0.1187,-0.1163,-0.1159,-0.1075,-0.1032,-0.0977,-0.0923,-0.089,-0.0937,-0.0838,-0.0918,-0.099,-0.0932,-0.0937,-0.0941,-0.0836,-0.083,-0.0919,-0.092,-0.092,0,-0.1151,-0.1222,-0.1221,-0.1263,-0.1274,-0.1232,-0.1274,-0.1259,-0.1222,-0.1206,-0.1175,-0.1075,-0.1017,-0.0984,-0.0996,-0.0963,-0.0895,-0.0952,-0.0947,-0.095,-0.0952,-0.0843,-0.0834,-0.0926,-0.0926,-0.0925,-0.0924,0,-0.1246,-0.1291,-0.1321,-0.1367,-0.1382,-0.1412,-0.1402,-0.1405,-0.1372,-0.1335,-0.1301,-0.122,-0.1154,-0.1132,-0.1082,-0.1063,-0.0997,-0.0973,-0.0921,-0.0967,-0.0848,-0.0837,-0.0936,-0.0934,-0.0932,-0.093,0,0,-0.1304,-0.1374,-0.1383,-0.1408,-0.1437,-0.1456,-0.1495,-0.1501,-0.15,-0.146,-0.1444,-0.1383,-0.1315,-0.1273,-0.1195,-0.1148,-0.1096,-0.1077,-0.1071,-0.0982,-0.0927,-0.0808,-0.0782,-0.1072,-0.1072,-0.1072,-0.0829,0,-0.1367,-0.146,-0.1485,-0.1556,-0.1592,-0.1585,-0.1619,-0.1616,-0.1586,-0.1559,-0.1479,-0.1429,-0.1375,-0.1332,-0.1287,-0.1142,-0.1076,-0.1161,-0.0887,-0.0878,-0.0775,-0.077,-0.0662,-0.0432,-0.0817,-0.0815,-0.0813,0,-0.1447,-0.1493,-0.1578,-0.1633,-0.165,-0.1688,-0.1714,-0.1736,-0.1698,-0.1671,-0.1617,-0.1534,-0.1455,-0.1405,-0.1205,-0.1259,-0.1113,-0.1001,-0.0989,-0.0826,-0.0738,-0.0451,-0.0395,-0.0288,-0.0795,-0.0796,-0.0797,0,-0.1465,-0.1556,-0.162,-0.1641,-0.1701,-0.1736,-0.1764,-0.1759,-0.176,-0.1723,-0.1695,-0.1599,-0.1513,-0.1373,-0.1143,-0.1174,-0.0894,-0.09,-0.0646,-0.0633,-0.0462,-0.0435,-0.0281,-0.076,-0.0761,-0.0762,-0.0762,0,-0.1515,-0.1561,-0.1632,-0.1661,-0.1725,-0.1761,-0.1802,-0.1818,-0.181,-0.1784,-0.1736,-0.1672,-0.1505,-0.1321,-0.1147,-0.0837,-0.0886,-0.0647,-0.057,-0.0501,-0.0482,-0.0317,-0.0335,-0.0752,-0.0754,-0.0756,-0.0758,0,-0.151,-0.1567,-0.1629,-0.1704,-0.1731,-0.1769,-0.1827,-0.1839,-0.1844,-0.181,-0.1797,-0.1692,-0.1459,-0.1241,-0.0956,-0.0798,-0.0442,-0.0416,-0.0321,-0.0239,0.0049,0.0018,0.0225,0.0329,-0.0124,-0.012,-0.0116,0,-0.1511,-0.1544,-0.1636,-0.167,-0.1705,-0.1764,-0.1798,-0.1844,-0.1846,-0.1798,-0.1767,-0.157,-0.1397,-0.0939,-0.0618,-0.0258,-0.0217,0.0045,-0.0018,0.0094,0.0115,0.0063,0.0129,0.0181,0.0187,0.0191,0.0195,0,-0.1478,-0.1513,-0.156,-0.1637,-0.169,-0.1746,-0.1796,-0.1805,-0.1826,-0.1782,-0.1664,-0.1532,-0.1107,-0.0675,-0.0224,-0.0012,0.0116,0.0153,0.024,0.034,0.0322,0.0452,0.0013,0.0237,0.0233,0.023,0.0227,0.0226,-0.142,-0.145,-0.1515,-0.1581,-0.165,-0.17,-0.1698,-0.1714,-0.1689,-0.155,-0.1508,-0.1195,-0.0712,-0.0076,0.013,0.0602,0.0463,0.0728,0.0682,0.0621,0.07,0.0368,0.068,0.0678,0.0677,0.0676,0.0675,0,-0.1319,-0.138,-0.145,-0.1527,-0.1566,-0.163,-0.1665,-0.1596,-0.1496,-0.1321,-0.1146,-0.0542,-0.005,0.0376,0.0963,0.1131,0.1115,0.119,0.1125,0.1171,0.0894,0.0885,0.1289,0.1289,0.1289,0.1289,0.1289,0.1289,-0.126,-0.1301,-0.1358,-0.1408,-0.146,-0.1447,-0.1436,-0.132,-0.1162,-0.0743,-0.035,-0.0073,0.0465,0.0962,0.1419,0.1481,0.1538,0.1518,0.1531,0.1307,0.1259,0.1212,0.1204,0.1668,0.1668,0.1863,0.1865,0.1866]}],[{"header":{"parameterUnit":"m.s-1","parameterCategory":2,"la1":30.2991,"la2":30.254,"lo1":-89.0895,"lo2":-89.0444,"dy":0.0017,"dx":0.0017,"nx":28,"ny":28,"refTime":"2025-07-09T03:00:00:Z","depth":"2","parameterNumber":2,"parameterNumberName":"U-component_of_CURRENTS"},"data":[0,0,0,0,0,0,0,0,0,0,0,0,0,0,0,0,0,0,0,0,0,0,0,0,0,0,0,0,0,0,0,0,0,0,0,0,0,0,0,0,0,0,0,0,0,0,0,0,0,0,0,0,0,0,0,0,0,0,-0.2003,-0.2004,0,-0.2108,-0.2109,-0.2111,-0.2228,-0.223,-0.2232,-0.2234,-0.2434,-0.2437,-0.2441,0,0,0,0,0,0,0,0,0,0,0,0,0,-0.1875,-0.1876,-0.2002,-0.2004,-0.2005,-0.2108,-0.211,-0.2111,-0.2228,-0.223,-0.2232,-0.2234,-0.2433,-0.2437,-0.2441,0,0,0,0,0,0,0,0,0,0,0,0,0,-0.1948,-0.1877,-0.2002,-0.2078,-0.2086,-0.2108,-0.211,-0.2111,-0.2227,-0.223,-0.2233,-0.2236,-0.2431,-0.2436,-0.2442,-0.2418,0,0,-0.2458,-0.246,0,0,0,0,0,0,0,0,-0.1944,-0.1953,-0.2065,-0.2072,-0.2081,-0.216,-0.2138,-0.2219,-0.2227,-0.2171,-0.2234,-0.2237,-0.235,-0.2362,-0.2372,-0.2427,-0.2436,-0.2459,-0.2462,-0.2464,-0.2466,0,0,0,0,0,0,0,-0.1939,-0.1949,-0.2042,-0.2066,-0.2076,-0.2097,-0.2111,-0.2153,-0.2244,-0.2176,-0.2186,-0.22,-0.2355,-0.2366,-0.2378,-0.2439,-0.2458,-0.2463,-0.2466,-0.2468,-0.2454,-0.245,0,0,0,0,0,0,-0.1928,-0.1944,-0.2039,-0.2046,-0.2021,-0.2097,-0.2113,-0.213,-0.2242,-0.2261,-0.2197,-0.2205,-0.2356,-0.2371,-0.2385,-0.2435,-0.2464,-0.2469,-0.2472,-0.2457,-0.2453,-0.2449,0,0,0,0,0,0,-0.1925,-0.1936,-0.2035,-0.1999,-0.2013,-0.2097,-0.2115,-0.2131,-0.2169,-0.2257,-0.2278,-0.2224,-0.2358,-0.2378,-0.2388,-0.2441,-0.2471,-0.2476,-0.2461,-0.2456,-0.2451,-0.2489,0,0,0,0,0,0,-0.1921,-0.1934,-0.1945,-0.1998,-0.2015,-0.2035,-0.2113,-0.2131,-0.2173,-0.2185,-0.2285,-0.2306,-0.2362,-0.2379,-0.2393,-0.2449,-0.248,-0.2466,-0.2459,-0.2453,-0.2493,-0.2486,-0.248,0,0,0,0,0,-0.1916,-0.192,-0.1945,-0.1957,-0.2027,-0.2033,-0.2042,-0.211,-0.2171,-0.2161,-0.221,-0.2304,-0.2347,-0.2379,-0.2397,-0.2457,-0.2469,-0.2461,-0.2453,-0.2495,-0.2487,-0.248,0,0,0,0,0,0,-0.1885,-0.1933,-0.1962,-0.1986,-0.2001,-0.2054,-0.2063,-0.2111,-0.2143,-0.2168,-0.2257,-0.2276,-0.2304,-0.2332,-0.2365,-0.2413,-0.2424,-0.2419,-0.245,-0.2443,-0.2437,-0.2539,-0.2485,0,0,0,0,0,-0.1876,-0.1888,-0.1927,-0.1944,-0.1949,-0.2006,-0.2025,-0.2065,-0.2102,-0.2124,-0.2185,-0.2236,-0.2275,-0.232,-0.2334,-0.237,-0.2374,-0.2406,-0.24,-0.2396,-0.2477,-0.2485,-0.2491,-0.2422,-0.2422,-0.2423,0,0,-0.1873,-0.1899,-0.1911,-0.1936,-0.1961,-0.1988,-0.2024,-0.2043,-0.2094,-0.2137,-0.2204,-0.221,-0.2263,-0.2294,-0.2313,-0.2343,-0.2383,-0.2386,-0.2384,-0.247,-0.2478,-0.2486,-0.2493,-0.2417,-0.2418,-0.2419,0,0,-0.1864,-0.1887,-0.1893,-0.1906,-0.1933,-0.1967,-0.1973,-0.2013,-0.2055,-0.208,-0.2131,-0.2156,-0.221,-0.2272,-0.2314,-0.2272,-0.2328,-0.2266,-0.2373,-0.2376,-0.2385,-0.2394,-0.229,-0.2289,-0.2293,-0.2294,-0.2294,0,-0.1861,-0.1889,-0.189,-0.1905,-0.1941,-0.1964,-0.1997,-0.203,-0.2071,-0.2128,-0.2098,-0.2206,-0.2219,-0.2347,-0.2325,-0.2282,-0.2254,-0.2418,-0.238,-0.239,-0.2399,-0.2291,-0.229,-0.2294,-0.2294,-0.2294,-0.2294,0,-0.1862,-0.1895,-0.1894,-0.1939,-0.1961,-0.1977,-0.2028,-0.2058,-0.2104,-0.2166,-0.2249,-0.2242,-0.2338,-0.2315,-0.2328,-0.2415,-0.2355,-0.2355,-0.2431,-0.241,-0.2292,-0.2291,-0.2296,-0.2295,-0.2295,-0.2295,0,0,-0.1838,-0.1889,-0.1892,-0.1938,-0.1988,-0.2011,-0.2085,-0.2176,-0.2277,-0.2293,-0.2406,-0.2454,-0.2483,-0.2526,-0.253,-0.2548,-0.2505,-0.2501,-0.25,-0.2452,-0.2445,-0.2259,-0.2238,-0.2519,-0.2522,-0.2524,-0.2298,0,-0.1846,-0.1888,-0.1921,-0.1996,-0.2032,-0.2094,-0.2178,-0.227,-0.2335,-0.242,-0.2478,-0.2542,-0.256,-0.2576,-0.262,-0.2528,-0.2525,-0.2563,-0.2429,-0.2424,-0.2311,-0.2241,-0.2103,-0.1882,-0.2297,-0.2297,-0.2297,0,-0.1844,-0.1881,-0.1941,-0.2067,-0.2092,-0.2147,-0.2306,-0.2395,-0.2535,-0.2579,-0.27,-0.2705,-0.2763,-0.272,-0.2695,-0.2722,-0.2621,-0.2538,-0.2527,-0.238,-0.2242,-0.1986,-0.1865,-0.2295,-0.2295,-0.2295,-0.2295,0,-0.1826,-0.191,-0.1967,-0.1999,-0.2127,-0.2194,-0.2294,-0.2454,-0.2532,-0.2677,-0.2674,-0.2815,-0.2763,-0.277,-0.2603,-0.2654,-0.2485,-0.2511,-0.2255,-0.2234,-0.2111,-0.2076,-0.2501,-0.2501,-0.2502,-0.2503,-0.2503,0,-0.1831,-0.1882,-0.1963,-0.1994,-0.2104,-0.2216,-0.2357,-0.2477,-0.2603,-0.266,-0.2763,-0.2732,-0.2772,-0.2663,-0.2604,-0.2389,-0.2481,-0.2281,-0.2194,-0.2093,-0.2062,-0.2455,-0.2453,-0.2494,-0.2496,-0.2498,-0.2499,0,-0.1799,-0.1853,-0.1915,-0.2035,-0.209,-0.2174,-0.2338,-0.242,-0.2556,-0.2597,-0.2604,-0.2619,-0.2467,-0.2428,-0.2309,-0.2282,-0.2146,-0.204,-0.1859,-0.1759,-0.1894,-0.1895,-0.1781,-0.1774,-0.1767,-0.1762,-0.1757,0,-0.1789,-0.1812,-0.1905,-0.1933,-0.1982,-0.2118,-0.2195,-0.2381,-0.2439,-0.2481,-0.2445,-0.2311,-0.2161,-0.1919,-0.1828,-0.1667,-0.1833,-0.1488,-0.1604,-0.1909,-0.1835,-0.1847,-0.1857,-0.1385,-0.1378,-0.1372,-0.1367,0,-0.1752,-0.1765,-0.1798,-0.1843,-0.1901,-0.1993,-0.211,-0.2124,-0.2287,-0.2239,-0.2112,-0.1975,-0.173,-0.1501,-0.1321,-0.1238,-0.1532,-0.1357,-0.1728,-0.1596,-0.152,-0.1452,-0.1478,-0.1314,-0.1319,-0.1323,-0.1326,-0.1328,-0.1695,-0.1682,-0.1695,-0.1733,-0.179,-0.1825,-0.1831,-0.1888,-0.1878,-0.1777,-0.1747,-0.1474,-0.1444,-0.1037,-0.0926,-0.0872,-0.1022,-0.1071,-0.1097,-0.1127,-0.1131,-0.1048,-0.0747,-0.0748,-0.075,-0.0752,-0.0753,0,-0.1601,-0.1586,-0.1594,-0.1589,-0.1568,-0.168,-0.1722,-0.1671,-0.1535,-0.1415,-0.1242,-0.0969,-0.0752,-0.0718,-0.055,-0.0531,-0.0586,-0.052,-0.0662,-0.0712,-0.0757,-0.0752,-0.0262,-0.026,-0.0259,-0.0258,0,0,-0.1548,-0.1496,-0.1481,-0.1377,-0.1374,-0.1308,-0.1298,-0.1215,-0.1119,-0.0887,-0.0706,-0.0618,-0.0637,-0.0441,-0.0416,-0.0323,-0.0496,-0.0256,-0.0647,-0.0859,-0.0903,-0.1063,-0.1106,0,0,0,0,0]},{"header":{"parameterUnit":"m.s-1","parameterCategory":2,"la1":30.2991,"la2":30.254,"lo1":-89.0895,"lo2":-89.0444,"dy":0.0017,"dx":0.0017,"nx":28,"ny":28,"refTime":"2025-07-09T03:00:00:Z","depth":"2","parameterNumber":3,"parameterNumberName":"V-component_of_CURRENTS"},"data":[0,0,0,0,0,0,0,0,0,0,0,0,0,0,0,0,0,0,0,0,0,0,0,0,0,0,0,0,0,0,0,0,0,0,0,0,0,0,0,0,0,0,0,0,0,0,0,0,0,0,0,0,0,0,0,0,0,0,-0.0114,-0.0114,0,-0.0049,-0.0048,-0.0047,0.0011,0.0012,0.0012,0.0012,0.0268,0.0274,0.0281,0,0,0,0,0,0,0,0,0,0,0,0,0,-0.014,-0.014,-0.0114,-0.0114,-0.0113,-0.0049,-0.0048,-0.0047,0.0011,0.0012,0.0012,0.0012,0.0266,0.0273,0.0281,0,0,0,0,0,0,0,0,0,0,0,0,0,-0.0104,-0.014,-0.0114,-0.0079,-0.0076,-0.0049,-0.0048,-0.0046,0.0011,0.0012,0.0012,0.0013,0.0263,0.0273,0.0282,0.0331,0,0,0.0312,0.0316,0,0,0,0,0,0,0,0,-0.0107,-0.0103,-0.0085,-0.0082,-0.0078,-0.0029,0.0037,0.0088,0.0011,-0.0018,0.0012,0.0013,0.0184,0.02,0.0213,0.0343,0.0354,0.0313,0.0319,0.0323,0.0326,0,0,0,0,0,0,0,-0.0109,-0.0105,-0.0085,-0.0085,-0.008,-0.005,-0.0044,0.0046,0.0085,-0.0016,-0.0012,-0.001,0.0187,0.0203,0.022,0.0358,0.0312,0.0321,0.0327,0.0331,0.0479,0.0477,0,0,0,0,0,0,-0.0127,-0.0108,-0.0087,-0.0083,-0.0095,-0.0051,-0.0044,-0.0043,0.008,0.0097,-0.0011,-0.0008,0.0186,0.0208,0.0229,0.0278,0.0323,0.0332,0.0337,0.0481,0.0479,0.0477,0,0,0,0,0,0,-0.0128,-0.0126,-0.009,-0.0097,-0.009,-0.0052,-0.005,-0.0042,-0.0026,0.0081,0.0102,-0.0004,0.0188,0.0216,0.0273,0.0289,0.0336,0.0345,0.0483,0.048,0.0478,0.0387,0,0,0,0,0,0,-0.0129,-0.0127,-0.0131,-0.0098,-0.0091,-0.008,-0.005,-0.0041,-0.0027,-0.0022,0.0095,0.0118,0.019,0.0257,0.0282,0.0304,0.0353,0.0486,0.0482,0.0479,0.0393,0.0382,0.0372,0,0,0,0,0,-0.013,-0.0135,-0.0131,-0.0129,-0.0098,-0.0081,-0.0074,-0.0041,-0.0028,-0.0024,0.0028,0.0115,0.0253,0.0263,0.0293,0.0318,0.0487,0.0483,0.0479,0.0397,0.0384,0.0373,0,0,0,0,0,0,-0.0146,-0.0129,-0.0124,-0.0124,-0.0109,-0.0072,-0.0066,-0.0048,-0.0005,0.0002,0.0098,0.0125,0.0177,0.0246,0.0254,0.0341,0.0383,0.0385,0.0311,0.0299,0.0289,0.0309,0.0361,0,0,0,0,0,-0.0156,-0.0156,-0.0137,-0.0138,-0.0133,-0.0103,-0.0092,-0.0073,-0.0035,-0.0016,0.0055,0.0124,0.0182,0.0236,0.0295,0.036,0.0421,0.0387,0.0377,0.0368,0.0399,0.0496,0.0499,0.0463,0.0463,0.0463,0,0,-0.0164,-0.0155,-0.0155,-0.0142,-0.0126,-0.0132,-0.0093,-0.0082,-0.0082,0.001,0.0038,0.0094,0.0182,0.0232,0.0265,0.03,0.0391,0.0363,0.0356,0.0392,0.0492,0.0497,0.0501,0.046,0.0461,0.0461,0,0,-0.0183,-0.0173,-0.0182,-0.0179,-0.0166,-0.015,-0.0153,-0.0123,-0.0101,-0.0076,-0.0024,0.0034,0.0129,0.0194,0.024,0.0214,0.0321,0.0229,0.0228,0.032,0.0325,0.0331,0.0338,0.0345,0.0243,0.0242,0.0242,0,-0.0195,-0.0211,-0.0182,-0.0197,-0.0206,-0.0166,-0.0188,-0.016,-0.0119,-0.0082,-0.008,0.0063,0.0115,0.0215,0.0178,0.0201,0.0243,0.0271,0.0311,0.0319,0.0327,0.0333,0.0343,0.0238,0.0238,0.0239,0.0239,0,-0.0224,-0.0245,-0.0251,-0.0263,-0.0262,-0.0274,-0.0247,-0.0229,-0.0202,-0.0151,-0.006,0.0012,0.0118,0.012,0.014,0.0225,0.0226,0.0274,0.0352,0.0326,0.0332,0.0343,0.0231,0.0232,0.0234,0.0235,0,0,-0.0236,-0.0268,-0.0273,-0.0303,-0.0305,-0.0309,-0.0302,-0.0263,-0.0203,-0.0155,-0.0064,-0.0007,0.0079,0.0133,0.0191,0.0255,0.0282,0.0278,0.0285,0.0299,0.0434,0.0481,0.0498,0.0353,0.0356,0.0358,0.0389,0,-0.0275,-0.0333,-0.033,-0.0387,-0.0421,-0.0391,-0.0373,-0.0323,-0.0239,-0.0134,-0.0027,0.0074,0.0077,0.014,0.0207,0.0271,0.0322,0.0267,0.0446,0.045,0.0512,0.0519,0.0448,0.0477,0.0401,0.0403,0.0404,0,-0.031,-0.0351,-0.042,-0.0452,-0.0456,-0.0471,-0.0409,-0.0382,-0.0217,-0.0132,0.0017,0.0122,0.0216,0.0232,0.0362,0.0329,0.0374,0.0416,0.0421,0.0526,0.0525,0.0505,0.0502,0.0425,0.0423,0.0422,0.042,0,-0.0352,-0.0414,-0.0477,-0.0497,-0.0513,-0.0518,-0.0506,-0.0375,-0.0304,-0.0109,-0.0023,0.0158,0.0218,0.0341,0.0401,0.0392,0.0543,0.0552,0.0638,0.0638,0.0649,0.0647,0.0672,0.0672,0.0672,0.0672,0.0672,0,-0.0408,-0.0458,-0.0503,-0.0542,-0.0577,-0.0562,-0.0508,-0.0443,-0.0279,-0.0175,-0.0019,0.0092,0.025,0.0356,0.0434,0.0564,0.0574,0.0654,0.0681,0.0602,0.0596,0.0629,0.0623,0.0673,0.0673,0.0673,0.0672,0,-0.0454,-0.0485,-0.056,-0.0598,-0.0607,-0.0629,-0.0566,-0.0487,-0.0353,-0.0212,-0.0165,0.0026,0.0148,0.0304,0.0474,0.0576,0.0716,0.0762,0.0616,0.063,0.0725,0.0714,0.0868,0.087,0.0872,0.0874,0.0876,0,-0.0489,-0.0535,-0.0607,-0.0641,-0.0668,-0.0676,-0.065,-0.0533,-0.0432,-0.026,-0.0196,-0.0048,0.0077,0.0341,0.0569,0.0764,0.0743,0.0805,0.0811,0.0751,0.0761,0.0746,0.0732,0.0729,0.0729,0.0729,0.073,0,-0.0557,-0.0576,-0.0632,-0.0694,-0.0717,-0.0713,-0.0673,-0.0611,-0.0461,-0.0373,-0.0253,-0.0159,0.0119,0.0336,0.0622,0.0727,0.0781,0.0819,0.0836,0.0713,0.0631,0.0637,0.0626,0.0731,0.0731,0.0731,0.0731,0.0731,-0.0596,-0.0642,-0.0696,-0.075,-0.077,-0.0752,-0.0733,-0.0657,-0.0567,-0.0427,-0.0342,-0.0131,0.006,0.0526,0.0634,0.0818,0.0862,0.0868,0.0862,0.0858,0.0859,0.079,0.0913,0.0914,0.0915,0.0915,0.0916,0,-0.0651,-0.0686,-0.074,-0.0795,-0.0809,-0.0802,-0.0738,-0.0688,-0.0625,-0.0473,-0.0381,-0.0071,0.0182,0.0437,0.074,0.0861,0.0814,0.0829,0.072,0.072,0.0719,0.0709,0.0724,0.0724,0.0724,0.0723,0,0,-0.0683,-0.0743,-0.0763,-0.0814,-0.0839,-0.0834,-0.0806,-0.0737,-0.0603,-0.0485,-0.0252,-0.0046,0.0297,0.0438,0.0514,0.0636,0.0626,0.0625,0.0768,0.0619,0.0615,0.074,0.0726,0,0,0,0,0]}],[{"header":{"parameterUnit":"m.s-1","parameterCategory":2,"la1":30.2991,"la2":30.254,"lo1":-89.0895,"lo2":-89.0444,"dy":0.0017,"dx":0.0017,"nx":28,"ny":28,"refTime":"2025-07-09T03:00:00:Z","depth":"4","parameterNumber":2,"parameterNumberName":"U-component_of_CURRENTS"},"data":[0,0,0,0,0,0,0,0,0,0,0,0,0,0,0,0,0,0,0,0,0,0,0,0,0,0,0,0,0,0,0,0,0,0,0,0,0,0,0,0,0,0,0,0,0,0,0,0,0,0,0,0,0,0,0,0,0,0,-0.1398,-0.1398,0,-0.1429,-0.1429,-0.1429,-0.1461,-0.1462,-0.1463,-0.1463,-0.1502,-0.1502,-0.1502,0,0,0,0,0,0,0,0,0,0,0,0,0,-0.1354,-0.1355,-0.1398,-0.1398,-0.1399,-0.1429,-0.1429,-0.1429,-0.1461,-0.1462,-0.1463,-0.1463,-0.1501,-0.1502,-0.1502,0,0,0,0,0,0,0,0,0,0,0,0,0,-0.1376,-0.1355,-0.1397,-0.142,-0.1422,-0.1429,-0.1429,-0.1429,-0.1461,-0.1462,-0.1463,-0.1464,-0.1501,-0.1502,-0.1502,-0.1488,0,0,-0.1505,-0.1505,0,0,0,0,0,0,0,0,-0.1375,-0.1378,-0.1416,-0.1418,-0.1421,-0.1444,-0.1428,-0.145,-0.1461,-0.1444,-0.1463,-0.1464,-0.1483,-0.1486,-0.1487,-0.149,-0.1491,-0.1505,-0.1505,-0.1505,-0.1505,0,0,0,0,0,0,0,-0.1373,-0.1376,-0.1408,-0.1416,-0.142,-0.1424,-0.1428,-0.1432,-0.1457,-0.1446,-0.1449,-0.1455,-0.1485,-0.1486,-0.1488,-0.1492,-0.1505,-0.1505,-0.1506,-0.1506,-0.1566,-0.1567,0,0,0,0,0,0,-0.1373,-0.1375,-0.1407,-0.1409,-0.1402,-0.1424,-0.1429,-0.1434,-0.1457,-0.1462,-0.1454,-0.1456,-0.1484,-0.1487,-0.1489,-0.1555,-0.1505,-0.1506,-0.1506,-0.1565,-0.1566,-0.1567,0,0,0,0,0,0,-0.1372,-0.1375,-0.1406,-0.1394,-0.1399,-0.1424,-0.143,-0.1434,-0.1461,-0.1463,-0.1468,-0.1479,-0.1485,-0.1488,-0.1518,-0.1554,-0.1506,-0.1507,-0.1563,-0.1565,-0.1567,-0.1634,0,0,0,0,0,0,-0.137,-0.1375,-0.139,-0.1394,-0.1399,-0.1427,-0.1429,-0.1434,-0.1462,-0.1466,-0.1486,-0.1489,-0.1486,-0.1517,-0.1518,-0.1554,-0.1507,-0.1562,-0.1564,-0.1566,-0.1631,-0.1638,-0.1645,0,0,0,0,0,-0.1369,-0.1379,-0.139,-0.1395,-0.1415,-0.1428,-0.1432,-0.1451,-0.1463,-0.1478,-0.1495,-0.149,-0.1532,-0.1518,-0.152,-0.1556,-0.1561,-0.1563,-0.1566,-0.1627,-0.1637,-0.1645,0,0,0,0,0,0,-0.1374,-0.1384,-0.1396,-0.1412,-0.1429,-0.1435,-0.1451,-0.1464,-0.1488,-0.1496,-0.1501,-0.1505,-0.1544,-0.1538,-0.1522,-0.158,-0.1547,-0.155,-0.1593,-0.1602,-0.1609,-0.1594,-0.1508,0,0,0,0,0,-0.138,-0.139,-0.1404,-0.1421,-0.1429,-0.1445,-0.1458,-0.147,-0.1486,-0.1499,-0.1519,-0.1535,-0.1551,-0.1568,-0.1575,-0.1605,-0.1579,-0.163,-0.1638,-0.1644,-0.1633,-0.1622,-0.1627,-0.1576,-0.1576,-0.1576,0,0,-0.1389,-0.1395,-0.1405,-0.1423,-0.1436,-0.146,-0.1455,-0.1478,-0.1509,-0.1497,-0.1554,-0.1559,-0.1563,-0.1599,-0.1617,-0.1604,-0.1647,-0.1647,-0.1652,-0.1638,-0.1625,-0.163,-0.1634,-0.1578,-0.1578,-0.1577,0,0,-0.1402,-0.1416,-0.1428,-0.1446,-0.1469,-0.148,-0.1494,-0.1517,-0.1541,-0.1583,-0.1586,-0.1613,-0.1644,-0.1655,-0.1662,-0.1711,-0.1681,-0.1721,-0.1752,-0.1744,-0.1747,-0.175,-0.1732,-0.1733,-0.173,-0.1731,-0.1731,0,-0.1417,-0.1431,-0.1437,-0.1456,-0.1476,-0.1495,-0.1521,-0.1547,-0.1585,-0.1596,-0.1612,-0.1652,-0.1669,-0.1697,-0.1725,-0.1728,-0.1708,-0.1723,-0.1752,-0.1754,-0.1756,-0.1737,-0.1737,-0.1734,-0.1734,-0.1733,-0.1733,0,-0.1432,-0.1459,-0.1468,-0.1501,-0.1524,-0.1547,-0.1581,-0.1612,-0.1644,-0.1662,-0.1701,-0.1722,-0.1737,-0.1763,-0.1765,-0.1792,-0.1769,-0.1758,-0.1729,-0.1765,-0.1743,-0.1742,-0.1739,-0.1738,-0.1737,-0.1736,0,0,-0.1425,-0.1471,-0.1477,-0.1494,-0.1549,-0.1557,-0.1617,-0.1651,-0.1664,-0.1722,-0.1738,-0.1797,-0.1792,-0.1799,-0.1808,-0.1819,-0.1836,-0.1802,-0.18,-0.178,-0.1806,-0.1665,-0.165,-0.1828,-0.1828,-0.1828,-0.1789,0,-0.144,-0.1476,-0.1501,-0.1546,-0.1566,-0.1602,-0.1642,-0.1677,-0.1709,-0.1731,-0.1763,-0.1781,-0.1812,-0.1813,-0.1836,-0.183,-0.1833,-0.1847,-0.1775,-0.1773,-0.164,-0.1644,-0.1828,-0.1787,-0.1787,-0.1787,-0.1786,0,-0.144,-0.1464,-0.1512,-0.1546,-0.1555,-0.1591,-0.1627,-0.1657,-0.1695,-0.1714,-0.1745,-0.176,-0.1801,-0.1808,-0.1827,-0.1832,-0.1822,-0.1819,-0.1817,-0.1654,-0.1628,-0.1741,-0.1783,-0.1783,-0.1784,-0.1784,-0.1784,0,-0.1405,-0.1461,-0.1495,-0.1516,-0.1569,-0.1592,-0.1612,-0.1652,-0.1657,-0.1693,-0.1699,-0.1742,-0.1758,-0.1768,-0.1794,-0.1802,-0.1791,-0.1795,-0.1656,-0.1647,-0.1757,-0.1754,-0.1782,-0.1782,-0.1782,-0.1782,-0.1782,0,-0.1389,-0.1414,-0.1482,-0.1498,-0.151,-0.1558,-0.1563,-0.1586,-0.1614,-0.16,-0.1677,-0.167,-0.1748,-0.176,-0.1774,-0.1706,-0.1774,-0.1644,-0.1619,-0.1789,-0.179,-0.1756,-0.1754,-0.1781,-0.1781,-0.1781,-0.1782,0,-0.1338,-0.1393,-0.1424,-0.1485,-0.1495,-0.1497,-0.1518,-0.1508,-0.1556,-0.1543,-0.1553,-0.1618,-0.1617,-0.1677,-0.1685,-0.1654,-0.1619,-0.1576,-0.1749,-0.1739,-0.1486,-0.1488,-0.1397,-0.1391,-0.1386,-0.1383,-0.1379,0,-0.1311,-0.1331,-0.1393,-0.1397,-0.1426,-0.1436,-0.1428,-0.1466,-0.1455,-0.1488,-0.1467,-0.1494,-0.1524,-0.1427,-0.1506,-0.1493,-0.1485,-0.1461,-0.1475,-0.1456,-0.1443,-0.1452,-0.146,-0.1372,-0.1371,-0.137,-0.1368,0,-0.1252,-0.1292,-0.1312,-0.1324,-0.1329,-0.1315,-0.1315,-0.1293,-0.1321,-0.1385,-0.1317,-0.1304,-0.1294,-0.1309,-0.1311,-0.1312,-0.1476,-0.1413,-0.1423,-0.1435,-0.1426,-0.1419,-0.1432,-0.1352,-0.1355,-0.1356,-0.1357,0,-0.1201,-0.1196,-0.1229,-0.1221,-0.1229,-0.1191,-0.1199,-0.1163,-0.1148,-0.1191,-0.1158,-0.1196,-0.125,-0.1211,-0.1216,-0.12,-0.1182,-0.1154,-0.1177,-0.1195,-0.1152,-0.1113,-0.0902,0,0,0,0,0,-0.1138,-0.1117,-0.1113,-0.1098,-0.111,-0.1112,-0.1118,-0.1134,-0.1168,-0.1069,-0.1103,-0.1076,-0.1045,-0.1076,-0.1018,-0.1152,-0.1215,-0.1082,-0.1203,-0.1263,-0.1282,-0.1253,0,0,0,0,0,0,-0.1089,-0.1091,-0.1079,-0.1003,-0.0978,-0.0965,-0.0969,-0.0996,-0.0942,-0.0987,-0.0973,-0.1006,-0.1004,-0.1062,-0.0998,-0.1007,-0.1056,-0.111,-0.1106,-0.1253,-0.1269,-0.1284,-0.1261,0,0,0,0,0]},{"header":{"parameterUnit":"m.s-1","parameterCategory":2,"la1":30.2991,"la2":30.254,"lo1":-89.0895,"lo2":-89.0444,"dy":0.0017,"dx":0.0017,"nx":28,"ny":28,"refTime":"2025-07-09T03:00:00:Z","depth":"4","parameterNumber":3,"parameterNumberName":"V-component_of_CURRENTS"},"data":[0,0,0,0,0,0,0,0,0,0,0,0,0,0,0,0,0,0,0,0,0,0,0,0,0,0,0,0,0,0,0,0,0,0,0,0,0,0,0,0,0,0,0,0,0,0,0,0,0,0,0,0,0,0,0,0,0,0,-0.007,-0.0069,0,-0.0042,-0.0042,-0.0041,-0.0019,-0.0019,-0.0019,-0.0018,0.003,0.0031,0.0032,0,0,0,0,0,0,0,0,0,0,0,0,0,-0.0085,-0.0085,-0.007,-0.0069,-0.0069,-0.0042,-0.0042,-0.0041,-0.0019,-0.0019,-0.0019,-0.0018,0.0029,0.0031,0.0032,0,0,0,0,0,0,0,0,0,0,0,0,0,-0.0069,-0.0085,-0.007,-0.0055,-0.0054,-0.0042,-0.0042,-0.0041,-0.0019,-0.0019,-0.0019,-0.0018,0.0029,0.003,0.0032,0.0038,0,0,0.0037,0.0038,0,0,0,0,0,0,0,0,-0.007,-0.0069,-0.0058,-0.0056,-0.0055,-0.0034,-0.0029,-0.0014,-0.0019,-0.0031,-0.0018,-0.0018,0.001,0.0013,0.0018,0.004,0.0042,0.0038,0.0039,0.0039,0.004,0,0,0,0,0,0,0,-0.0071,-0.0069,-0.0058,-0.0057,-0.0056,-0.0044,-0.0042,-0.0026,-0.0012,-0.003,-0.0029,-0.0027,0.0011,0.0016,0.002,0.0043,0.0037,0.0039,0.004,0.0041,0.008,0.008,0,0,0,0,0,0,-0.0077,-0.0071,-0.0059,-0.0057,-0.0063,-0.0044,-0.0041,-0.004,-0.0012,-0.0008,-0.0027,-0.0026,0.0013,0.0018,0.0021,0.0038,0.0039,0.0041,0.0042,0.008,0.008,0.008,0,0,0,0,0,0,-0.0078,-0.0077,-0.006,-0.0064,-0.0061,-0.0044,-0.0043,-0.004,-0.0036,-0.001,-0.0006,-0.0026,0.0014,0.0019,0.0034,0.004,0.0042,0.0043,0.008,0.008,0.008,0.0067,0,0,0,0,0,0,-0.0078,-0.0077,-0.008,-0.0064,-0.0061,-0.0057,-0.0044,-0.004,-0.0035,-0.0033,-0.0008,-0.0003,0.0014,0.0031,0.0036,0.0042,0.0044,0.008,0.008,0.008,0.0067,0.0067,0.0066,0,0,0,0,0,-0.0079,-0.0083,-0.008,-0.0079,-0.0065,-0.0058,-0.0055,-0.0042,-0.0035,-0.0036,-0.0017,-0.0004,0.0035,0.0032,0.0038,0.0045,0.008,0.008,0.008,0.0068,0.0067,0.0066,0,0,0,0,0,0,-0.0091,-0.0081,-0.0077,-0.0078,-0.0072,-0.0054,-0.0054,-0.0045,-0.0031,-0.003,-0.0005,0.0001,0.0017,0.003,0.0027,0.0056,0.006,0.0061,0.0049,0.0048,0.0047,0.003,0.0046,0,0,0,0,0,-0.0097,-0.0097,-0.0086,-0.0088,-0.0085,-0.0071,-0.0067,-0.0059,-0.0045,-0.0039,-0.002,0.0,0.0022,0.0033,0.005,0.0065,0.0089,0.0073,0.0072,0.0071,0.0061,0.0123,0.0127,0.0081,0.0081,0.0081,0,0,-0.0102,-0.0097,-0.0097,-0.009,-0.0084,-0.0092,-0.0068,-0.0065,-0.007,-0.0035,-0.0033,-0.0004,0.0024,0.0042,0.0051,0.0054,0.0095,0.0072,0.0071,0.006,0.0124,0.0128,0.0132,0.0081,0.0081,0.0081,0,0,-0.0117,-0.0109,-0.0117,-0.0118,-0.0113,-0.0106,-0.0108,-0.0094,-0.0083,-0.0076,-0.0048,-0.0013,0.0006,0.0038,0.0055,0.0059,0.0088,0.0062,0.0048,0.0109,0.0113,0.0118,0.0144,0.0151,0.0064,0.0064,0.0064,0,-0.0126,-0.014,-0.0119,-0.0133,-0.0144,-0.0117,-0.0139,-0.0122,-0.0105,-0.0098,-0.0081,-0.0026,0.0006,0.0039,0.0045,0.0059,0.0083,0.005,0.0109,0.0114,0.0118,0.0145,0.0153,0.0063,0.0063,0.0063,0.0064,0,-0.0149,-0.0168,-0.0174,-0.0187,-0.0191,-0.0205,-0.0189,-0.0182,-0.0165,-0.0146,-0.011,-0.0052,-0.0022,0.0005,0.0027,0.0074,0.0076,0.0101,0.0112,0.0122,0.0149,0.0157,0.0062,0.0063,0.0063,0.0063,0,0,-0.0159,-0.0188,-0.0193,-0.0223,-0.0228,-0.0238,-0.0241,-0.0238,-0.0242,-0.0191,-0.018,-0.011,-0.007,-0.0048,0.0002,0.0064,0.0127,0.0092,0.0095,0.0118,0.0238,0.0224,0.0232,0.0167,0.0169,0.017,0.0239,0,-0.0192,-0.0243,-0.0242,-0.0298,-0.033,-0.0317,-0.0326,-0.0314,-0.0289,-0.0266,-0.0178,-0.0151,-0.0092,-0.0071,0.0004,0.0098,0.015,0.0104,0.0223,0.0225,0.0214,0.0241,0.0175,0.0246,0.0247,0.0249,0.025,0,-0.0221,-0.0258,-0.0321,-0.0376,-0.0387,-0.0409,-0.043,-0.0432,-0.0384,-0.0358,-0.0296,-0.0237,-0.014,-0.009,0.0077,0.0045,0.0128,0.0207,0.0212,0.0207,0.0228,0.0236,0.0265,0.0264,0.0263,0.0262,0.0261,0,-0.0256,-0.0316,-0.0376,-0.0395,-0.044,-0.0463,-0.0479,-0.0462,-0.0463,-0.0413,-0.0398,-0.0284,-0.0213,-0.0086,0.0081,0.0076,0.0268,0.0281,0.0341,0.034,0.0336,0.0331,0.0386,0.0386,0.0385,0.0385,0.0385,0,-0.0301,-0.035,-0.04,-0.0437,-0.0503,-0.0514,-0.0557,-0.0553,-0.0532,-0.0522,-0.0445,-0.0392,-0.0203,-0.007,0.0063,0.0234,0.0257,0.0336,0.0364,0.0326,0.0319,0.0342,0.0336,0.0388,0.0387,0.0387,0.0386,0,-0.0335,-0.0366,-0.0442,-0.0505,-0.0525,-0.0572,-0.0612,-0.0626,-0.0611,-0.0591,-0.0577,-0.0452,-0.0274,-0.0095,0.0129,0.0211,0.0369,0.0418,0.0347,0.037,0.0393,0.0385,0.047,0.047,0.047,0.047,0.047,0,-0.0361,-0.0403,-0.0488,-0.0529,-0.0562,-0.0621,-0.0648,-0.0659,-0.0661,-0.0613,-0.059,-0.0444,-0.0335,-0.003,0.0147,0.0376,0.041,0.045,0.0432,0.0386,0.0406,0.0397,0.039,0.0471,0.0471,0.0471,0.0471,0,-0.0413,-0.0438,-0.0496,-0.0571,-0.0621,-0.067,-0.0704,-0.0711,-0.0698,-0.0692,-0.0578,-0.0443,-0.0241,-0.0015,0.0166,0.0331,0.0401,0.0453,0.0453,0.0437,0.0389,0.0406,0.0398,0.0472,0.0472,0.0472,0.0472,0,-0.0444,-0.0489,-0.055,-0.0613,-0.0668,-0.0693,-0.0714,-0.0692,-0.0691,-0.0634,-0.0585,-0.0393,-0.0272,-0.0037,0.0135,0.0292,0.0315,0.0325,0.0332,0.0333,0.0274,0.0192,0.0241,0,0,0,0,0,-0.0477,-0.0521,-0.0582,-0.0647,-0.069,-0.0716,-0.0735,-0.0737,-0.0722,-0.0643,-0.0616,-0.0428,-0.0179,-0.0064,0.0095,0.0126,0.033,0.0308,0.0342,0.0476,0.0475,0.0429,0,0,0,0,0,0,-0.0502,-0.0564,-0.0588,-0.0647,-0.0686,-0.0727,-0.0737,-0.0726,-0.0669,-0.0634,-0.0475,-0.0432,-0.0158,-0.0256,0.009,0.0133,0.0162,0.0428,0.0429,0.0477,0.0476,0.0475,0.0427,0,0,0,0,0]}]]